Miscellaneous Local Product
Issued by NWS Hastings, NE

Home | Current Version | Previous Version | Graphics & Text | Print | Product List | Glossary On
Versions: 1 2 3 4 5 6 7 8 9 10 11 12 13 14 15 16 17 18 19 20 21 22 23 24 25 26 27 28 29 30 31 32 33 34 35 36 37 38 39 40 41 42 43 44 45 46 47 48 49 50
639
AXUS43 KGID 260302
MISGRI

GID CWA HOURLY WEATHER ROUNDUP
NATIONAL WEATHER SERVICE HASTINGS NE
1000 PM CDT MON JUL 25 2016

NOTE: "FAIR" INDICATES FEW OR NO CLOUDS BELOW 12,000 FEET WITH NO
SIGNIFICANT WEATHER AND/OR OBSTRUCTIONS TO VISIBILITY.

...SOUTH CENTRAL NEBRASKA...

CITY           SKY/WX    TMP DP  RH WIND       PRES   REMARKS
GRAND ISLAND   CLEAR     73  64  73 SE6       30.11R
HASTINGS       CLEAR     76  63  64 E7        30.11R
KEARNEY        CLEAR     72  61  68 SE7       30.11R
ORD            CLEAR     76  62  62 SE7       30.09R
YORK           CLEAR     72  63  73 CALM      30.11R
AURORA         CLEAR     70  65  85 SE6       30.11R
LEXINGTON      CLEAR     75  68  77 SE3       30.11R
HOLDREGE       CLEAR     73  66  80 E7        30.10R
HEBRON         CLEAR     72  62  69 CALM      30.09R

...NEBRASKA PANHANDLE...

CITY           SKY/WX    TMP DP  RH WIND       PRES   REMARKS
CHADRON        CLEAR     83  59  44 SE22      30.01S
ALLIANCE       CLEAR     74  62  66 SE10      30.09R
SCOTTSBLUFF    CLEAR     81  61  50 SE13      30.07R
SIDNEY         CLEAR     74  61  63 S14       30.14R

...WESTERN AND NORTH CENTRAL NEBRASKA...

CITY           SKY/WX    TMP DP  RH WIND       PRES   REMARKS
VALENTINE      CLEAR     76  60  57 SE9       30.06R
AINSWORTH      CLEAR     74  61  63 S7        30.09R
ONEILL         CLEAR     74  62  64 SE7       30.10R
BROKEN BOW     PTCLDY    72  63  73 SE6       30.11R
IMPERIAL       CLEAR     73  64  73 SE7       30.09F
NORTH PLATTE   CLEAR     71  67  87 SE8       30.10R
MCCOOK         CLEAR     76  62  62 SE9       30.09R

...EASTERN NEBRASKA...

CITY           SKY/WX    TMP DP  RH WIND       PRES   REMARKS
NORFOLK        CLEAR     71  63  75 S7        30.09R
SO SIOUX CITY  CLEAR     75  66  73 S6        30.06R
TEKAMAH        CLEAR     73  67  81 CALM      30.07R
COLUMBUS       CLEAR     70  57  64 CALM      30.09R
ALBION         CLEAR     71  64  79 SE5       30.10R
OMAHA EPPLEY   PTCLDY    77  67  71 E3        30.07R
OFFUTT AFB     CLEAR     71  68  92 E5        30.07R
MILLARD        CLEAR     75  67  76 CALM      30.08R
LINCOLN        CLEAR     78  65  63 SE7       30.09R
NEBRASKA CITY  CLEAR     75  66  73 E5        30.08R
BEATRICE       CLEAR     74  65  73 CALM      30.09R
FALLS CITY     CLEAR     76  68  76 CALM      30.07R

...NORTHERN KANSAS...

CITY           SKY/WX    TMP DP  RH WIND       PRES   REMARKS
GOODLAND       PTCLDY    73  64  73 SE8       30.12R
HILL CITY      CLEAR     73  66  78 E6        30.09R
NORTON         CLEAR     73  59  60 E3        30.09R
SMITH CENTER   CLEAR     72  66  83 E7        30.09R
BELOIT         CLEAR     73  66  78 CALM      30.06R
HAYS           CLEAR     73  61  64 E9        30.07S
RUSSELL        CLEAR     73  65  75 SE8       30.06R
CONCORDIA      CLEAR     71  66  84 SE5       30.07R
SALINA         CLEAR     79  69  71 E8        30.05R
TOPEKA           N/A     77  70  79 CALM      30.06R



USA.gov is the U.S. government's official web portal to all federal, state and local government web resources and services.